Simultaneous Nadir Overpasses (SNOs) Predictions

Prediction of SNOs between AURA and NPP Satellite Orbit:

Table of predicted SNOs for the next 14.0 days since TLE Epoch: 7/12/2014
Index Date (AURA) Time (AURA) Lat,Lon (AURA) SZA (AURA ) Date (NPP) Time (NPP) Lat,Lon (NPP) SZA (NPP ) Distance(km) Time Diff (sec)
1 07/14/2014 06:30:16 75.21, -38.60 76.77 07/14/2014 06:29:07 75.20, -38.67 76.85 2.09 69
2 07/14/2014 07:19:23 -76.23, 132.02 104.40 07/14/2014 07:19:31 -76.22, 131.97 104.40 1.53 8
3 07/16/2014 22:46:30 75.80, 78.97 76.52 07/16/2014 22:45:54 75.81, 79.01 76.54 1.24 36
4 07/16/2014 23:35:39 -76.70,-110.50 104.54 07/16/2014 23:36:20 -76.71,-110.43 104.59 1.79 41
5 07/19/2014 14:17:32 -62.59, 7.75 89.21 07/19/2014 14:16:19 -62.81, 6.38 88.92 73.74 73
6 07/19/2014
